• Em Portugal
  • Lista de países
  • Para 7 dias
  • Temperatura da água
  • Mapas de satélite
  • Mapa do tempo
  • Widgets de tempo
  • user-avatar
    Iniciar Sessão

    Previsão horária em Mingachevir

    Hoje, 22 Outubro, Segunda-feira

    Tempo Temperatura Precipitação Vento Pressão Humidade
    00:00 +21°C° 0 mm 1 m/s 753 mmHg 59%
    01:00 +21°C° 0 mm 1 m/s 753 mmHg 61%
    02:00 +21°C° 0 mm 1 m/s 753 mmHg 64%
    03:00 +18°C° 0 mm 0 m/s 753 mmHg 66%
    04:00 +20°C° 0 mm 1 m/s 753 mmHg 67%
    05:00 +20°C° 0 mm 1 m/s 753 mmHg 67%
    06:00 +19°C° 0 mm 1 m/s 753 mmHg 68%
    07:00 +21°C° 0 mm 1 m/s 753 mmHg 63%
    08:00 +21°C° 0 mm 2 m/s 753 mmHg 57%
    09:00 +23°C° 0 mm 2 m/s 753 mmHg 52%
    10:00 +24°C° 0.1 mm 2 m/s 753 mmHg 48%
    11:00 +25°C° 0.1 mm 3 m/s 753 mmHg 44%
    12:00 +26°C° 0.1 mm 3 m/s 753 mmHg 40%
    13:00 +26°C° 0 mm 4 m/s 752 mmHg 39%
    14:00 +26°C° 0 mm 4 m/s 752 mmHg 39%
    15:00 +26°C° 0 mm 4 m/s 752 mmHg 39%
    16:00 +24°C° 0 mm 3 m/s 753 mmHg 42%
    17:00 +22°C° 0 mm 3 m/s 753 mmHg 45%
    18:00 +21°C° 0 mm 2 m/s 753 mmHg 48%
    19:00 +21°C° 0 mm 2 m/s 753 mmHg 50%
    20:00 +20°C° 0 mm 2 m/s 754 mmHg 52%
    21:00 +20°C° 0 mm 2 m/s 754 mmHg 53%
    22:00 +20°C° 0 mm 2 m/s 754 mmHg 54%
    23:00 +19°C° 0 mm 2 m/s 754 mmHg 55%

    Amanhã, 23 Outubro, Terça-feira

    Tempo Temperatura Precipitação Vento Pressão Humidade
    00:00 +19°C° 0 mm 2 m/s 754 mmHg 56%
    01:00 +19°C° 0 mm 2 m/s 754 mmHg 56%
    02:00 +19°C° 0 mm 2 m/s 754 mmHg 57%
    03:00 +18°C° 0 mm 2 m/s 754 mmHg 57%
    04:00 +18°C° 0 mm 2 m/s 754 mmHg 58%
    05:00 +18°C° 0 mm 2 m/s 754 mmHg 58%
    06:00 +17°C° 0 mm 2 m/s 754 mmHg 58%
    07:00 +19°C° 0 mm 2 m/s 754 mmHg 54%
    08:00 +21°C° 0 mm 2 m/s 754 mmHg 49%
    09:00 +23°C° 0 mm 2 m/s 754 mmHg 45%
    10:00 +24°C° 0 mm 2 m/s 753 mmHg 42%
    11:00 +25°C° 0 mm 2 m/s 753 mmHg 39%
    12:00 +26°C° 0 mm 3 m/s 753 mmHg 37%
    13:00 +26°C° 0 mm 2 m/s 752 mmHg 36%
    14:00 +27°C° 0 mm 2 m/s 752 mmHg 36%
    15:00 +27°C° 0 mm 2 m/s 751 mmHg 35%
    16:00 +26°C° 0 mm 2 m/s 751 mmHg 39%
    17:00 +24°C° 0 mm 1 m/s 751 mmHg 42%
    18:00 +23°C° 0 mm 1 m/s 752 mmHg 46%
    19:00 +22°C° 0 mm 1 m/s 752 mmHg 47%
    20:00 +22°C° 0 mm 1 m/s 752 mmHg 48%
    21:00 +21°C° 0 mm 1 m/s 752 mmHg 49%
    22:00 +21°C° 0 mm 1 m/s 752 mmHg 48%
    23:00 +21°C° 0 mm 1 m/s 752 mmHg 48%

    Depois de amanhã, 24 Outubro, Quarta-feira

    Tempo Temperatura Precipitação Vento Pressão Humidade
    00:00 +20°C° 0 mm 1 m/s 752 mmHg 48%
    01:00 +20°C° 0 mm 1 m/s 751 mmHg 47%
    02:00 +20°C° 0 mm 1 m/s 751 mmHg 47%
    03:00 +19°C° 0 mm 1 m/s 751 mmHg 46%
    04:00 +19°C° 0 mm 1 m/s 751 mmHg 46%
    05:00 +19°C° 0 mm 1 m/s 750 mmHg 46%
    06:00 +19°C° 0 mm 1 m/s 750 mmHg 46%
    07:00 +19°C° 0 mm 2 m/s 750 mmHg 44%
    08:00 +20°C° 0 mm 3 m/s 750 mmHg 41%
    09:00 +22°C° 0 mm 4 m/s 750 mmHg 39%
    10:00 +23°C° 0 mm 4 m/s 749 mmHg 37%
    11:00 +25°C° 0 mm 4 m/s 749 mmHg 35%
    12:00 +26°C° 0 mm 3 m/s 748 mmHg 33%
    13:00 +26°C° 0 mm 3 m/s 747 mmHg 33%
    14:00 +26°C° 0 mm 3 m/s 747 mmHg 33%
    15:00 +26°C° 0 mm 3 m/s 746 mmHg 33%
    16:00 +25°C° 0 mm 2 m/s 746 mmHg 35%
    17:00 +24°C° 0 mm 2 m/s 746 mmHg 38%
    18:00 +23°C° 0 mm 2 m/s 746 mmHg 40%
    19:00 +23°C° 0 mm 2 m/s 746 mmHg 41%
    20:00 +23°C° 0 mm 2 m/s 746 mmHg 42%
    21:00 +21°C° 0 mm 2 m/s 746 mmHg 42%
    22:00 +21°C° 0 mm 2 m/s 745 mmHg 43%
    23:00 +20°C° 0 mm 2 m/s 745 mmHg 45%

    25 Outubro, Quinta-feira

    Tempo Temperatura Precipitação Vento Pressão Humidade
    00:00 +20°C° 0 mm 3 m/s 745 mmHg 46%
    01:00 +20°C° 0 mm 3 m/s 745 mmHg 47%
    02:00 +19°C° 0 mm 3 m/s 744 mmHg 47%
    03:00 +19°C° 0 mm 3 m/s 744 mmHg 48%
    04:00 +19°C° 0 mm 3 m/s 744 mmHg 48%
    05:00 +19°C° 0 mm 3 m/s 744 mmHg 49%
    06:00 +19°C° 0 mm 3 m/s 744 mmHg 49%
    07:00 +21°C° 0 mm 3 m/s 744 mmHg 44%
    08:00 +22°C° 0 mm 3 m/s 743 mmHg 39%
    09:00 +25°C° 0 mm 4 m/s 743 mmHg 34%
    10:00 +27°C° 0 mm 4 m/s 743 mmHg 32%
    11:00 +28°C° 0 mm 4 m/s 742 mmHg 30%
    12:00 +29°C° 0 mm 4 m/s 742 mmHg 27%
    13:00 +29°C° 0 mm 4 m/s 741 mmHg 27%
    14:00 +29°C° 0 mm 3 m/s 740 mmHg 27%
    15:00 +30°C° 0 mm 3 m/s 740 mmHg 27%
    16:00 +28°C° 0 mm 2 m/s 740 mmHg 30%
    17:00 +26°C° 0 mm 2 m/s 741 mmHg 33%
    18:00 +25°C° 0 mm 2 m/s 741 mmHg 36%
    19:00 +24°C° 0 mm 2 m/s 741 mmHg 37%
    20:00 +24°C° 0 mm 2 m/s 741 mmHg 39%
    21:00 +23°C° 0 mm 1 m/s 741 mmHg 40%
    22:00 +23°C° 0 mm 1 m/s 741 mmHg 40%
    23:00 +22°C° 0 mm 1 m/s 742 mmHg 41%

    26 Outubro, Sexta-feira

    Tempo Temperatura Precipitação Vento Pressão Humidade
    00:00 +22°C° 0 mm 1 m/s 742 mmHg 42%
    01:00 +22°C° 0 mm 1 m/s 742 mmHg 42%
    02:00 +20°C° 0 mm 2 m/s 742 mmHg 42%
    03:00 +20°C° 0 mm 2 m/s 742 mmHg 43%
    04:00 +20°C° 0 mm 2 m/s 743 mmHg 45%
    05:00 +19°C° 0 mm 2 m/s 744 mmHg 47%
    06:00 +19°C° 0 mm 2 m/s 744 mmHg 50%
    07:00 +19°C° 0 mm 3 m/s 745 mmHg 50%
    08:00 +20°C° 0 mm 4 m/s 745 mmHg 50%
    09:00 +20°C° 0 mm 4 m/s 746 mmHg 50%
    10:00 +20°C° 0 mm 5 m/s 746 mmHg 49%
    11:00 +20°C° 0 mm 5 m/s 746 mmHg 49%
    12:00 +19°C° 0 mm 5 m/s 746 mmHg 48%
    13:00 +19°C° 0 mm 6 m/s 747 mmHg 49%
    14:00 +17°C° 0 mm 7 m/s 747 mmHg 49%
    15:00 +16°C° 0 mm 8 m/s 747 mmHg 49%
    16:00 +15°C° 0.9 mm 7 m/s 748 mmHg 55%
    17:00 +14°C° 0.9 mm 6 m/s 749 mmHg 61%
    18:00 +13°C° 0.9 mm 6 m/s 750 mmHg 67%
    19:00 +13°C° 2 mm 6 m/s 750 mmHg 65%
    20:00 +13°C° 2 mm 6 m/s 751 mmHg 64%
    21:00 +13°C° 2 mm 6 m/s 752 mmHg 62%
    22:00 +13°C° 1.4 mm 6 m/s 753 mmHg 62%
    23:00 +13°C° 1.4 mm 6 m/s 753 mmHg 61%

    27 Outubro, Sábado

    Tempo Temperatura Precipitação Vento Pressão Humidade
    00:00 +13°C° 1.4 mm 6 m/s 754 mmHg 60%
    01:00 +13°C° 0.8 mm 5 m/s 755 mmHg 60%
    02:00 +13°C° 0.8 mm 5 m/s 755 mmHg 61%
    03:00 +13°C° 0.8 mm 4 m/s 756 mmHg 61%
    04:00 +13°C° 0.2 mm 4 m/s 757 mmHg 62%
    05:00 +12°C° 0.2 mm 4 m/s 758 mmHg 62%
    06:00 +12°C° 0.2 mm 3 m/s 759 mmHg 63%
    07:00 +13°C° 0 mm 3 m/s 760 mmHg 60%
    08:00 +13°C° 0 mm 3 m/s 760 mmHg 58%
    09:00 +14°C° 0 mm 3 m/s 761 mmHg 56%
    10:00 +16°C° 0 mm 2 m/s 761 mmHg 52%
    11:00 +16°C° 0 mm 2 m/s 761 mmHg 47%
    12:00 +17°C° 0 mm 2 m/s 761 mmHg 43%
    13:00 +19°C° 0 mm 1 m/s 761 mmHg 42%
    14:00 +19°C° 0 mm 1 m/s 761 mmHg 41%
    15:00 +19°C° 0 mm 1 m/s 761 mmHg 40%
    16:00 +18°C° 0 mm 1 m/s 762 mmHg 44%
    17:00 +16°C° 0 mm 2 m/s 762 mmHg 49%
    18:00 +15°C° 0 mm 2 m/s 763 mmHg 53%
    19:00 +15°C° 0 mm 2 m/s 763 mmHg 55%
    20:00 +15°C° 0 mm 2 m/s 764 mmHg 57%
    21:00 +14°C° 0 mm 2 m/s 764 mmHg 59%
    22:00 +14°C° 0 mm 2 m/s 764 mmHg 59%
    23:00 +13°C° 0 mm 2 m/s 764 mmHg 60%
    Mostrar mais